Regional Weather Roundup
Issued by NWS New Orleans/Baton Rouge, LA

Home | Current Version | Previous Version | Text Only | Print | Product List | Glossary On
Versions: 1 2 3 4 5 6 7 8 9 10 11 12 13 14 15 16 17 18 19 20 21 22 23 24 25 26 27 28 29 30 31 32 33 34 35 36 37 38 39 40 41 42 43 44 45 46 47 48 49 50
203
ASUS44 KLIX 161005
RWRLIX
NEW ORLEANS REGIONAL WEATHER ROUNDUP
NATIONAL WEATHER SERVICE NEW ORLEANS LA
500 AM CDT TUE SEP 16 2014

NOTE: "FAIR" INDICATES FEW OR NO CLOUDS BELOW 12,000 FEET WITH NO
      SIGNIFICANT WEATHER AND/OR OBSTRUCTIONS TO VISIBILITY.
      SKY/WX - SKY CONDITION AND SIGNIFICANT WEATHER.
      TMP - AIR TEMPERATURE.     DP    - DEWPOINT TEMPERATURE.
      RH  - RELATIVE HUMIDITY.   PRES  - PRESSURE.
      HI  - HEAT INDEX.          WCI   - WIND CHILL INDEX.

*  THESE STATIONS ARE NOT NWS OR FAA STATIONS AND ARE NOT UNDER
   NWS QUALITY CONTROL.

LAZ038-040-048-061>063-065>067-069-161100-
SOUTHEAST LOUISIANA

CITY           SKY/WX    TMP DP  RH WIND       PRES   REMARKS
N.O. AUDUBON     N/A     79  76  92 MISG        N/A
N.O. INTL ARPT PTCLDY    77  74  90 CALM      30.05S
N.O. LAKEFRONT CLEAR     81  76  84 NW3       30.05F
N.O. DOWNTOWN*   N/A     81  72  74 CALM      30.05S
SLIDELL        CLEAR     73  71  93 CALM      30.04F
BATON ROUGE    PTCLDY    74  72  93 CALM      30.06S
BOOTHVILLE     HVY RAIN  77  74  90 CALM      30.05F FOG
BELLE CHASSE   CLEAR     75  71  87 CALM      30.05S
BOGALUSA*        N/A     74  71  89 CALM      30.07S FOG
GALLIANO*      NOT AVBL
NEW ROADS*       N/A     73  73  98 SW3       30.06S FOG
GONZALES*        N/A     73  73 100 CALM      30.04F THUNDER FOG
HAMMOND*       CLEAR     75  72  88 CALM      30.07S
HOUMA*         PTCLDY    75  72  89 CALM      30.05S THUNDER
PORT FOURCHON* PTSUNNY   82  75  78 SW5       30.09R

$$

MSZ070-080>082-161100-
SOUTHERN MISSISSIPPI

CITY           SKY/WX    TMP DP  RH WIND       PRES   REMARKS
MCCOMB         MOCLDY    75  73  93 N3        30.06F
GULFPORT       CLEAR     75  73  93 NW3       30.04S
BILOXI         PTCLDY    76  74  93 N5        30.04F
PASCAGOULA     FOG       74  73  97 CALM      30.04S VSB 1

$$

COASTAL OBSERVATIONS
LAKE AND NEARSHORE STATIONS

STATION/POSITION TIME  TEMP    WIND        PRES    WAVE
                       AIR SEA DIR/SP/G            HT/PER
                 (UTC) (F)     (DEG/KT/KT) (MB)    (FT/S)
PASCAGOULA       1000   78     360/  3/  3 1016.7
WAVELAND YACHT   1000   76     300/  3/  4 1017.0
GRAND ISLE       1000   80 86  180/  4/  5 1018.3
SOUTHWEST PASS   1000   83 90  220/  8/ 11 1017.8
NEW CANAL        1000   80 82  200/  2/  3 1017.8
SHELL BEACH      1000   81 80  280/  5/  5 1017.4

OFFSHORE STATIONS

STATION/POSITION TIME  TEMP    WIND        PRES    WAVE
                       AIR SEA DIR/SP/G            HT/PER
                 (UTC) (F)     (DEG/KT/KT) (MB)    (FT/S)
64 S DAUPHIN ISL 0918   81 85  230/ 12/ 14 1017.7    3/ 7

$$




USA.gov is the U.S. government's official web portal to all federal, state and local government web resources and services.